SKRG Airport Information

Runway Information
Runway 18 Length 11483 ft width 148 ft
Elevation 7025 ft Threshold 0 ft Heading 180
Runway 36 Length 11483 ft Width 148 ft
Elevation 6967 ft Threshold 0 ft Heading 360
Airport Frequencies
Type APP Name MEDELLIN A Frequency 121.1 MHZ
Type ATIS Name ATIS Frequency 115.1 MHZ
Type GND Name GND Frequency 121.9 MHZ
Type INFO Name MEDELLIN F Frequency 127.2 MHZ
Type RDO Name MEDELLIN R Frequency 348.8 MHZ
Type RDO Name MEDELLIN R Frequency 891.8 MHZ
Type TWR Name TWR Frequency 118.6 MHZ
Airport Navaids
Type NDB Name Medellin Frequency 274 KHZ
Type VOR-DME Name Marinilla Frequency 113000 KHZ
Type VOR-DME Name Rionegro Frequency 115100 KHZ
Airport Weather Information & NOTAM
ADDS - METARS form results

(1920 UTC 19 July 2018)
 
METAR text: SKRG 191900Z 12018KT 9999 FEW020 SCT100 22/13 A3024
Conditions at: SKRG (RIONEGRO/JOSE MA, CO) observed 1900 UTC 19 July 2018
Temperature: 22.0°C (72°F)
Dewpoint: 13.0°C (55°F) [RH = 57%]
Pressure (altimeter): 30.24 inches Hg (1024.1 mb)
Winds: from the ESE (120 degrees) at 21 MPH (18 knots; 9.4 m/s)
Visibility: 6 or more miles (10+ km)
Ceiling: at least 12,000 feet AGL
Clouds: few clouds at 2000 feet AGL
scattered clouds at 10000 feet AGL
Weather: no significant weather observed at this time